This is the latest recevied weather packets stored in our database for station/object KA8OAD-10. If no packets are shown the sender has not sent any weather packets the latest 10 day(s).
| Time | Temp. | Humidity | Pressure | Rain* | Wind** | Luminosity | Snow |
|---|---|---|---|---|---|---|---|
| 1778268150 | 13.89° C | 75% | 1009.5 hPa | 0 mm | - | 83 W/m² | - |
| 1778267850 | 13.89° C | 76% | 1009.6 hPa | 0 mm | - | 160 W/m² | - |
| 1778267252 | 13.33° C | 78% | 1009.5 hPa | 0 mm | - | 232 W/m² | - |
| 1778266651 | 13.33° C | 80% | 1009.7 hPa | 0 mm | - | 260 W/m² | - |
| 1778266351 | 13.33° C | 80% | 1009.7 hPa | 0 mm | - | 248 W/m² | - |
| 1778266051 | 12.78° C | 80% | 1009.8 hPa | 0 mm | - | 229 W/m² | - |
| 1778265750 | 12.78° C | 80% | 1009.7 hPa | 0 mm | - | 204 W/m² | - |
| 1778265153 | 12.78° C | 82% | 1009.9 hPa | 0.25 mm | - | 220 W/m² | - |
| 1778264852 | 12.78° C | 82% | 1010 hPa | 0.25 mm | - | 285 W/m² | - |
| 1778264251 | 12.78° C | 81% | 1010.1 hPa | 0.25 mm | - | 186 W/m² | - |
| 1778263651 | 12.78° C | 80% | 1010.4 hPa | 0.25 mm | - | 132 W/m² | - |
| 1778263050 | 13.33° C | 78% | 1010.4 hPa | 0 mm | - | 146 W/m² | - |
| 1778262452 | 13.33° C | 76% | 1010.6 hPa | 0 mm | - | 142 W/m² | - |
| 1778261852 | 13.33° C | 75% | 1010.7 hPa | 0 mm | - | 79 W/m² | - |
| 1778261551 | 13.33° C | 74% | 1010.7 hPa | 0 mm | - | 100 W/m² | - |
| 1778261250 | 13.89° C | 74% | 1010.7 hPa | 0 mm | - | 120 W/m² | - |
| 1778260650 | 13.89° C | 72% | 1010.6 hPa | 0 mm | - | 83 W/m² | - |
| 1778260353 | 14.44° C | 71% | 1010.7 hPa | 0 mm | - | 118 W/m² | - |
| 1778260052 | 14.44° C | 69% | 1010.7 hPa | 0 mm | - | 137 W/m² | - |
| 1778259751 | 14.44° C | 68% | 1010.6 hPa | 0 mm | - | 69 W/m² | - |
| 1778259450 | 15° C | 66% | 1010.6 hPa | 0 mm | - | 139 W/m² | - |
| 1778259153 | 15° C | 63% | 1010.6 hPa | 0 mm | - | 39 W/m² | - |
| 1778258853 | 15° C | 63% | 1010.4 hPa | 0 mm | - | 69 W/m² | - |
| 1778258552 | 15.56° C | 62% | 1010.7 hPa | 0 mm | - | 58 W/m² | - |
| 1778258251 | 16.11° C | 62% | 1010.6 hPa | 0 mm | - | 123 W/m² | - |
* Rain latest hour (hover to see other rain measurements)
** Current wind speed in m/s (hover to see current wind gust speed)